Home > Weather > Lisbon > Past weeks

Flag for Portugal Weather for the Past 2 Weeks in Lisbon, Portugal

Now
70 °F

Clear.


Feels Like: 70 °F
Forecast: 59 / 64 °F
Wind: 8 mph from Northeast

Location: Lisbon Portela Airport

Current Time: May 4, 2016 at 1:38:36 AM

Latest Report: May 4, 2016 at 1:00 AM


Visibility: 10 mi

Pressure: 29.95 "Hg

Humidity: 38%

Dew Point: 43 °F

Location of LisbonLocation

Historic Weather in Lisbon — Graph

°F

Lisbon Temperature Yesterday

Maximum temperature yesterday: 86 °F (at 4:30 PM)
Minimum temperature yesterday: 55 °F (at 3:30 AM)
Average temperature yesterday: 71 °F

High & Low Weather Summary for the Past Weeks

 TemperatureHumidityPressure
High86 °F (May 3, 4:30 PM)100% (Apr 20, 6:00 AM)30.24 "Hg (Apr 20, 6:00 AM)
Low52 °F (Apr 24, 5:30 AM)19% (May 3, 4:30 PM)29.74 "Hg (Apr 19, 4:30 AM)
Average61 °F69%30.02 "Hg
* Reported Apr 19 12:30 AM — May 4 12:30 AM, Lisbon, Weather by CustomWeather, © 2016

Note: Actual official high and low records may vary slightly from our data, if they occured in-between our weather recording intervals... More about our weather records

Advertising

Lisbon Weather History for the Previous 24 Hours

Scroll right to see more
 ConditionsComfort  
Time TempWeatherWind HumidityBarometerVisibility
12:30 AM
Wed, May 4
70 °FClear.7 mph38%29.98 "Hg10 mi
12:00 AM72 °FClear.7 mph36%29.98 "Hg10 mi
11:30 PM
Tue, May 3
72 °FClear.7 mph38%29.98 "Hg10 mi
11:00 PM72 °FClear.7 mph41%29.98 "Hg10 mi
10:30 PM72 °FClear.7 mph41%29.98 "Hg10 mi
10:00 PM73 °FPassing clouds.8 mph36%29.95 "HgN/A
9:30 PM77 °FSunny.7 mph28%29.95 "Hg10 mi
9:00 PM77 °FSunny.7 mph28%29.95 "Hg10 mi
8:30 PM79 °FSunny.8 mph26%29.95 "Hg10 mi
8:00 PM81 °FSunny.9 mph26%29.95 "Hg10 mi
7:30 PM82 °FSunny.10 mph25%29.95 "Hg10 mi
7:00 PM84 °FSunny.12 mph22%29.95 "Hg10 mi
6:30 PM84 °FSunny.14 mph22%29.95 "Hg10 mi
6:00 PM84 °FSunny.13 mph23%29.95 "Hg10 mi
5:30 PM84 °FSunny.14 mph20%29.95 "Hg10 mi
5:00 PM86 °FSunny.13 mph20%29.95 "Hg10 mi
4:30 PM86 °FPassing clouds.12 mph19%29.98 "HgN/A
4:00 PM84 °FPassing clouds.10 mph22%29.98 "HgN/A
3:30 PM84 °FSunny.12 mph22%30.01 "Hg10 mi
3:00 PM84 °FPassing clouds.12 mph23%30.01 "HgN/A
2:30 PM84 °FSunny.9 mph23%30.01 "Hg10 mi
2:00 PM81 °FPassing clouds.8 mph26%30.04 "HgN/A
1:30 PM81 °FSunny.9 mph26%30.04 "Hg10 mi
1:00 PM81 °FPassing clouds.12 mph26%30.04 "HgN/A
12:30 PM77 °FPassing clouds.9 mph32%30.07 "HgN/A
12:00 PM75 °FPassing clouds.9 mph36%30.07 "HgN/A
11:30 AM73 °FPassing clouds.10 mph38%30.07 "HgN/A
11:00 AM70 °FPassing clouds.10 mph43%30.07 "HgN/A
10:30 AM68 °FPassing clouds.10 mph46%30.07 "HgN/A
10:00 AM66 °FSunny.12 mph43%30.07 "Hg10 mi
9:30 AM66 °FPassing clouds.10 mph43%30.07 "HgN/A
9:00 AM64 °FSunny.13 mph49%30.07 "Hg10 mi
8:30 AM64 °FSunny.13 mph49%30.07 "Hg10 mi
8:00 AM63 °FSunny.12 mph52%30.07 "Hg10 mi
7:30 AM61 °FClear.9 mph55%30.07 "Hg10 mi
7:00 AM57 °FClear.7 mph63%30.07 "Hg10 mi
6:30 AM59 °FClear.6 mph59%30.07 "Hg10 mi
6:00 AM59 °FClear.6 mph59%30.04 "Hg10 mi
5:30 AM59 °FClear.5 mph59%30.07 "Hg10 mi
5:00 AM55 °FPassing clouds.3 mph72%30.07 "HgN/A
4:30 AM55 °FClear.6 mph72%30.07 "Hg10 mi
4:00 AM55 °FClear.6 mph72%30.07 "Hg10 mi
3:30 AM55 °FClear.2 mph77%30.07 "Hg10 mi
2:30 AM61 °FPassing clouds.5 mph55%30.07 "HgN/A
2:00 AM59 °FClear.6 mph59%30.07 "Hg10 mi
1:30 AM59 °FClear.8 mph63%30.09 "Hg10 mi
1:00 AM61 °FClear.8 mph59%30.09 "Hg10 mi
Weather by CustomWeather, © 2016

See weather overviewHow to use our weather pages